Home > Weather > Schlieren > Past weeks

Flag for Switzerland Past Weather in Schlieren, Zurich, Switzerland — Yesterday and Last 2 Weeks

Now
60 °F

Cool.


Feels Like: 58 °F
Forecast: 49 / 66 °F
Wind: 10 mph from Southwest

Location: Zuerich-Fluntern

Current Time: May 30, 2016 at 12:43:21 PM

Latest Report: May 30, 2016 at 11:00 AM


Visibility: N/A

Pressure: 29.74 "Hg

Humidity: 72%

Dew Point: 50 °F

Location of SchlierenLocation

Past Weather in Schlieren — Graph

°F

Schlieren Temperature Yesterday

Maximum temperature yesterday: 62 °F (at 1:00 AM)
Minimum temperature yesterday: 55 °F (at 7:00 PM)
Average temperature yesterday: 59 °F

High & Low Weather Summary for the Past Weeks

 TemperatureHumidityPressure
High79 °F (May 27, 6:00 PM)96% (May 24, 5:00 AM)30.23 "Hg (May 24, 5:00 AM)
Low42 °F (May 23, 10:00 AM)28% (May 21, 4:00 PM)29.70 "Hg (May 22, 4:00 PM)
Average56 °F74%29.97 "Hg
* Reported May 15 11:00 AM — May 30 11:00 AM, Schlieren, Weather by CustomWeather, © 2016

Note: Actual official high and low records may vary slightly from our data, if they occured in-between our weather recording intervals... More about our weather records

Advertising

Schlieren Weather History for the Previous 24 Hours

Scroll right to see more
 ConditionsComfort  
Time TempWeatherWind HumidityBarometerVisibility
11:00 AM
Mon, May 30
60 °FCool.10 mph72%29.74 "HgN/A
10:00 AM59 °FCool.12 mph77%29.74 "HgN/A
9:00 AM58 °FCool.13 mph78%29.75 "HgN/A
7:00 AM55 °FCool.9 mph86%29.75 "HgN/A
6:00 AM55 °FCool.9 mph86%29.76 "HgN/A
5:00 AM54 °FCool.10 mph90%29.76 "HgN/A
4:00 AM54 °FCool.13 mph92%29.76 "HgN/A
3:00 AM55 °FCool.12 mph91%29.76 "HgN/A
2:00 AM55 °FCool.8 mph91%29.77 "HgN/A
1:00 AM55 °FCool.9 mph93%29.77 "HgN/A
12:00 AM56 °FCool.10 mph93%29.78 "HgN/A
11:00 PM
Sun, May 29
56 °FCool.6 mph94%29.77 "HgN/A
10:00 PM57 °FCool.6 mph91%29.77 "HgN/A
9:00 PM56 °FCool.6 mph94%29.75 "HgN/A
8:00 PM57 °FOvercast.7 mph90%29.74 "HgN/A
7:00 PM55 °FCool.6 mph94%29.75 "HgN/A
6:00 PM58 °FCool.6 mph90%29.73 "HgN/A
5:00 PM58 °FCool.5 mph94%29.72 "HgN/A
4:00 PM58 °FCool.6 mph94%29.73 "HgN/A
3:00 PM58 °FCool.3 mph96%29.73 "HgN/A
2:00 PM58 °FOvercast.6 mph92%29.72 "HgN/A
1:00 PM59 °FCool.3 mph91%29.72 "HgN/A
12:00 PM61 °FCool.5 mph92%29.71 "HgN/A
Weather by CustomWeather, © 2016

See weather overviewHow to use our weather pages